This demonstration page uses our WeatherBlox Daily Observations layout. Learn more.

38.89511, -77.03637

Hourly Observations for August 14, 2015

Temp ( °F °C ) Dew Point ( °F °C ) Humidity (%) Winds ( mph kmh ) Pressure ( in mb ) Visibility ( mi km ) Precip ( " mm )
12:52 am 00:52 Mostly Clear 70 21 55 13 60 60 Calm 30.15 1021 10 16.09344 0 0
1:52 am 01:52 Mostly Clear 70 21 57 14 64 64 Calm 30.18 1022 10 16.09344 0 0
2:52 am 02:52 Mostly Clear 66 19 61 16 83 83 Calm 30.15 1021 10 16.09344 0 0
3:52 am 03:52 Mostly Clear 66 19 57 14 73 73 SW 3 6 30.15 1021 10 16.09344 0 0
4:52 am 04:52 Clear 66 19 57 14 73 73 N 5 7 30.15 1021 10 16.09344 0 0
5:52 am 05:52 Mostly Clear 66 19 57 14 73 73 Calm 30.18 1022 10 16.09344 0 0
6:52 am 06:52 Mostly Sunny 64 18 57 14 78 78 Calm 30.18 1022 10 16.09344 0 0
7:52 am 07:52 Mostly Sunny 70 21 61 16 73 73 Calm 30.21 1023 10 16.09344 0 0
8:52 am 08:52 Mostly Sunny 72 22 63 17 73 73 Calm 30.21 1023 10 16.09344 0 0
9:52 am 09:52 Mostly Sunny 75 24 61 16 61 61 E 3 6 30.21 1023 10 16.09344 0 0
10:52 am 10:52 Partly Cloudy 81 27 61 16 51 51 E 5 7 30.21 1023 10 16.09344 0 0
11:52 am 11:52 Partly Cloudy 82 28 57 14 42 42 E 3 6 30.21 1023 10 16.09344 0 0
12:52 pm 12:52 Partly Cloudy 84 29 55 13 37 37 E 5 7 30.18 1022 10 16.09344 0 0
1:52 pm 13:52 Partly Cloudy 84 29 57 14 40 40 SSE 6 9 30.18 1022 10 16.09344 0 0
2:52 pm 14:52 Mostly Sunny 86 30 57 14 38 38 S 7 11 30.15 1021 10 16.09344 0 0
3:52 pm 15:52 Mostly Sunny 88 31 57 14 35 35 N 6 9 30.15 1021 10 16.09344 0 0
4:52 pm 16:52 Mostly Sunny 88 31 59 15 38 38 S 8 13 30.12 1020 10 16.09344 0 0
5:52 pm 17:52 Mostly Sunny 84 29 59 15 43 43 S 10 17 30.12 1020 10 16.09344 0 0
6:52 pm 18:52 Mostly Sunny 84 29 59 15 43 43 S 8 13 30.12 1020 10 16.09344 0 0
7:52 pm 19:52 Mostly Sunny 81 27 55 13 42 42 S 8 13 30.12 1020 10 16.09344 0 0
8:52 pm 20:52 Clear 79 26 61 16 54 54 SSE 6 9 30.12 1020 10 16.09344 0 0
9:52 pm 21:52 Clear 77 25 61 16 57 57 SSE 8 13 30.15 1021 10 16.09344 0 0
10:52 pm 22:52 Clear 75 24 61 16 61 61 S 8 13 30.15 1021 10 16.09344 0 0
11:52 pm 23:52 Clear 73 23 63 17 69 69 SSW 5 7 30.15 1021 10 16.09344 0 0

Powered by AerisWeather